FW5284 Weather Reports


Display with metric or nautical units.
time (UTC)temp
F
wind
direction
speed
MPH
gust
MPH
rain 1hr
in
rain 24hr
in
rain mn
in
humidity
%
barometer
mb
20260503220029 51 25 0.0 0.0 0.00 0.00 0.00 74 982.0
20260503215508 51 27 0.0 0.0 0.00 0.00 0.00 74 982.1
20260503215012 51 26 0.0 0.0 0.00 0.00 0.00 74 982.1
20260503214523 51 25 0.0 0.0 0.00 0.00 0.00 74 982.3
20260503214009 51 27 0.0 0.0 0.00 0.00 0.00 74 982.3
20260503213506 51 27 0.0 0.0 0.00 0.00 0.00 74 982.3
20260503213009 51 26 0.0 0.0 0.00 0.00 0.00 74 982.4
20260503212503 51 27 0.0 0.0 0.00 0.00 0.00 74 982.4
20260503212012 51 27 0.0 0.0 0.00 0.00 0.00 74 982.6
20260503211521 51 29 0.0 0.0 0.00 0.00 0.00 74 982.6
20260503211006 51 28 0.0 0.0 0.00 0.00 0.00 74 982.7
20260503210508 51 30 0.0 0.0 0.00 0.00 0.00 74 982.8
20260503210020 51 32 0.0 0.0 0.00 0.00 0.00 74 982.8
20260503205508 51 29 0.0 0.0 0.00 0.00 0.00 73 982.8
20260503205006 51 26 0.0 0.0 0.00 0.00 0.00 74 982.8
20260503204526 51 29 0.0 0.0 0.00 0.00 0.00 73 982.9
20260503204011 51 31 0.0 0.0 0.00 0.00 0.00 73 983.1
20260503203507 51 31 0.0 0.0 0.00 0.00 0.00 72 983.2
20260503203026 51 31 0.0 0.0 0.00 0.00 0.00 71 983.3
20260503202512 51 33 0.0 0.0 0.00 0.00 0.00 70 983.5
20260503202013 52 32 0.0 0.0 0.00 0.00 0.00 71 983.6
20260503201514 52 31 0.0 0.0 0.00 0.00 0.00 71 983.8
20260503201003 52 27 0.0 0.0 0.00 0.00 0.00 69 983.9
20260503200505 52 32 0.0 0.0 0.00 0.00 0.00 70 984.0
20260503200020 52 36 0.0 0.0 0.00 0.00 0.00 69 984.2
20260503195507 52 33 0.0 0.0 0.00 0.00 0.00 70 984.2
20260503195007 52 34 0.0 0.0 0.00 0.00 0.00 70 984.4
20260503194524 53 34 0.0 0.0 0.00 0.00 0.00 69 984.4
20260503194006 53 34 0.0 0.0 0.00 0.00 0.00 68 984.6
20260503193511 54 30 0.0 0.0 0.00 0.00 0.00 65 984.7
20260503193024 55 32 0.0 0.0 0.00 0.00 0.00 62 984.6
20260503192506 56 31 0.0 0.0 0.00 0.00 0.00 61 984.3
20260503192009 56 29 0.0 0.0 0.00 0.00 0.00 60 984.2
20260503191525 57 27 0.0 0.0 0.00 0.00 0.00 58 984.1
20260503191013 58 29 0.0 0.0 0.00 0.00 0.00 56 983.9
20260503190509 58 27 0.0 0.0 0.00 0.00 0.00 56 983.9
20260503190014 58 25 0.0 0.0 0.00 0.00 0.00 56 983.9
20260503185509 59 16 0.0 0.0 0.00 0.00 0.00 54 983.8
20260503185005 59 5 0.0 0.0 0.00 0.00 0.00 52 983.9
20260503184527 60 360 0.0 0.0 0.00 0.00 0.00 51 983.9
20260503184006 60 360 0.0 0.0 0.00 0.00 0.00 52 983.9
20260503183508 60 352 0.0 0.0 0.00 0.00 0.00 51 984.0
20260503183004 61 352 0.0 0.0 0.00 0.00 0.00 51 983.8
20260503182505 61 354 0.0 0.0 0.00 0.00 0.00 49 983.9
20260503182004 61 340 0.0 0.0 0.00 0.00 0.00 52 983.8
20260503181506 61 342 0.0 0.0 0.00 0.00 0.00 51 984.0
20260503181003 60 345 0.0 0.0 0.00 0.00 0.00 51 984.0
20260503180503 60 345 0.0 0.0 0.00 0.00 0.00 50 984.2
20260503180009 60 345 0.0 0.0 0.00 0.00 0.00 51 984.1
20260503175502 60 345 0.0 0.0 0.00 0.00 0.00 52 984.3
20260503175002 60 345 0.0 0.0 0.00 0.00 0.00 53 984.4
20260503174510 61 340 0.0 0.0 0.00 0.00 0.00 52 984.4
20260503174004 61 340 0.0 0.0 0.00 0.00 0.00 52 984.6
20260503173502 61 342 0.0 0.0 0.00 0.00 0.00 52 984.5
20260503173002 61 342 0.0 0.0 0.00 0.00 0.00 51 984.6
20260503172502 61 342 0.0 0.0 0.00 0.00 0.00 54 984.8
20260503172003 61 341 0.0 0.0 0.00 0.00 0.00 54 984.9
20260503171510 60 340 0.0 0.0 0.00 0.00 0.00 52 985.1
20260503171003 60 342 0.0 0.0 0.00 0.00 0.00 54 985.2
20260503170505 60 342 0.0 0.0 0.00 0.00 0.00 51 985.2
20260503151003 57 320 0.0 0.0 0.00 0.00 0.00 52 986.5
20260503150506 57 309 0.0 0.0 0.00 0.00 0.00 55 986.5
20260503131005 49 306 0.0 0.0 0.00 0.00 0.00 62 987.0
20260503130506 48 306 0.0 0.0 0.00 0.00 0.00 63 986.8
20260503110503 39 302 0.0 0.0 0.00 0.00 0.00 75 986.3
20260503090503 40 302 0.0 0.0 0.00 0.00 0.00 72 986.4
20260503081503 40 302 0.0 0.0 0.00 0.00 0.00 71 986.5
20260503081002 40 302 0.0 0.0 0.00 0.00 0.00 71 986.5
20260503080503 40 302 0.0 0.0 0.00 0.00 0.00 71 986.4
20260503072503 41 302 0.0 0.0 0.00 0.00 0.00 69 986.8
20260503072008 41 302 0.0 0.0 0.00 0.00 0.00 69 986.7
20260503071505 41 302 0.0 0.0 0.00 0.00 0.00 69 986.7
20260503071004 41 302 0.0 0.0 0.00 0.00 0.00 69 986.6
20260503070503 41 302 0.0 0.0 0.00 0.00 0.00 69 986.7
20260503055003 39 302 0.0 0.0 0.00 0.00 0.00 75 987.5
20260503054504 39 302 0.0 0.0 0.00 0.00 0.00 75 987.5
20260503054004 39 302 0.0 0.0 0.00 0.00 0.00 75 987.5
20260503053504 39 302 0.0 0.0 0.00 0.00 0.00 75 987.7
20260503053006 40 302 0.0 0.0 0.00 0.00 0.00 75 987.7
20260503052504 40 302 0.0 0.0 0.00 0.00 0.00 75 987.8
20260503052005 40 302 0.0 0.0 0.00 0.00 0.00 76 987.9
20260503051509 39 302 0.0 0.0 0.00 0.00 0.00 76 987.9
20260503051010 39 302 0.0 0.0 0.00 0.00 0.00 76 987.9
20260503050505 39 302 0.0 0.0 0.00 0.00 0.00 76 988.0
20260503050015 39 302 0.0 0.0 0.00 0.00 0.00 76 987.9
20260503045507 39 302 0.0 0.0 0.00 0.00 0.00 77 988.0
20260503045005 39 302 0.0 0.0 0.00 0.00 0.00 77 988.1
20260503044521 39 302 0.0 0.0 0.00 0.00 0.00 77 988.0
20260503044003 39 302 0.0 0.0 0.00 0.00 0.00 77 988.0
20260503043505 39 302 0.0 0.0 0.00 0.00 0.00 77 988.0
20260503043006 39 302 0.0 0.0 0.00 0.00 0.00 77 988.1
20260503042504 39 302 0.0 0.0 0.00 0.00 0.00 77 988.1
20260503042004 39 302 0.0 0.0 0.00 0.00 0.00 77 988.1
20260503041514 40 302 0.0 0.0 0.00 0.00 0.00 77 988.0
20260503041003 40 302 0.0 0.0 0.00 0.00 0.00 78 988.0
20260503040504 40 302 0.0 0.0 0.00 0.00 0.00 78 988.1
20260503040017 40 302 0.0 0.0 0.00 0.00 0.00 77 988.1
20260503035508 40 302 0.0 0.0 0.00 0.00 0.00 75 988.1
20260503035004 40 302 0.0 0.0 0.00 0.00 0.00 74 988.1
20260503034518 40 302 0.0 0.0 0.00 0.00 0.00 74 988.1
20260503034005 40 302 0.0 0.0 0.00 0.00 0.00 73 988.1
20260503033505 40 302 0.0 0.0 0.00 0.00 0.00 73 988.2
20260503033021 40 302 0.0 0.0 0.00 0.00 0.00 72 988.2
20260503032507 40 302 0.0 0.0 0.00 0.00 0.00 72 988.2
20260503032003 41 302 0.0 0.0 0.00 0.00 0.00 72 988.2
20260503031506 41 302 0.0 0.0 0.00 0.00 0.00 71 988.3
20260503031003 41 302 0.0 0.0 0.00 0.00 0.00 70 988.2
20260503030502 41 302 0.0 0.0 0.00 0.00 0.00 70 988.3
20260503030015 41 302 0.0 0.0 0.00 0.00 0.00 70 988.3
20260503025504 41 302 0.0 0.0 0.00 0.00 0.00 68 988.4
20260503025004 42 302 0.0 0.0 0.00 0.00 0.00 66 988.4
20260503024515 42 302 0.0 0.0 0.00 0.00 0.00 66 988.3
20260503024010 42 302 0.0 0.0 0.00 0.00 0.00 64 988.4
20260503023505 42 302 0.0 0.0 0.00 0.00 0.00 66 988.4
20260503023022 42 302 0.0 0.0 0.00 0.00 0.00 65 988.4
20260503022505 42 302 0.0 0.0 0.00 0.00 0.00 65 988.4
20260503022006 43 302 0.0 0.0 0.00 0.00 0.00 66 988.3
20260503021522 43 302 0.0 0.0 0.00 0.00 0.00 65 988.2
20260503021006 43 302 0.0 0.0 0.00 0.00 0.00 62 988.3
20260503020511 43 302 0.0 0.0 0.00 0.00 0.00 65 988.4
20260503020008 44 302 0.0 0.0 0.00 0.00 0.00 62 988.4
20260503015503 44 302 0.0 0.0 0.00 0.00 0.00 62 988.2
20260503015003 44 302 0.0 0.0 0.00 0.00 0.00 61 988.3
20260503014512 44 302 0.0 0.0 0.00 0.00 0.00 59 988.2
20260503014004 45 302 0.0 0.0 0.00 0.00 0.00 59 988.1
20260503013504 45 302 0.0 0.0 0.00 0.00 0.00 59 988.1
20260503013028 45 302 0.0 0.0 0.00 0.00 0.00 57 988.1
20260503012505 45 302 0.0 0.0 0.00 0.00 0.00 53 988.1
20260503012007 46 302 0.0 0.0 0.00 0.00 0.00 54 988.2
20260503011521 46 302 0.0 0.0 0.00 0.00 0.00 55 988.2
20260503011006 46 302 0.0 0.0 0.00 0.00 0.00 51 988.2
20260503010507 47 302 0.0 0.0 0.00 0.00 0.00 50 988.2
20260503010028 47 302 0.0 0.0 0.00 0.00 0.00 48 988.2
20260503005510 47 302 0.0 0.0 0.00 0.00 0.00 47 988.1
20260503005010 48 302 0.0 0.0 0.00 0.00 0.00 52 988.2
20260503004526 48 302 0.0 0.0 0.00 0.00 0.00 49 988.2
20260503004006 48 302 0.0 0.0 0.00 0.00 0.00 50 988.2
20260503003504 48 302 0.0 0.0 0.00 0.00 0.00 50 988.2
20260503003016 49 302 0.0 0.0 0.00 0.00 0.00 48 988.3
20260503002501 49 302 0.0 0.0 0.00 0.00 0.00 48 988.2
20260503002002 49 302 0.0 0.0 0.00 0.00 0.00 46 988.2
20260503001504 49 302 0.0 0.0 0.00 0.00 0.00 46 988.3
20260503001002 50 302 0.0 0.0 0.00 0.00 0.00 47 988.2
20260503000504 50 302 0.0 0.0 0.00 0.00 0.00 46 988.3
20260503000003 50 302 0.0 0.0 0.00 0.00 0.00 43 988.3
20260502235502 50 302 0.0 0.0 0.00 0.00 0.00 45 988.3
20260502235003 50 302 0.0 0.0 0.00 0.00 0.00 45 988.2
20260502234504 51 302 0.0 0.0 0.00 0.00 0.00 44 988.2
20260502234003 51 302 0.0 0.0 0.00 0.00 0.00 41 988.2
20260502233503 51 302 0.0 0.0 0.00 0.00 0.00 43 988.3
20260502233010 51 302 0.0 0.0 0.00 0.00 0.00 44 988.3
20260502232504 51 302 0.0 0.0 0.00 0.00 0.00 41 988.3
20260502232003 51 302 0.0 0.0 0.00 0.00 0.00 42 988.4
20260502231517 51 302 0.0 0.0 0.00 0.00 0.00 43 988.4
20260502231006 52 302 0.0 0.0 0.00 0.00 0.00 43 988.4
20260502230502 52 302 0.0 0.0 0.00 0.00 0.00 42 988.5
20260502230007 52 302 0.0 0.0 0.00 0.00 0.00 42 988.5
20260502225503 52 302 0.0 0.0 0.00 0.00 0.00 45 988.6
20260502225003 52 302 0.0 0.0 0.00 0.00 0.00 43 988.5
20260502224505 52 302 0.0 0.0 0.00 0.00 0.00 44 988.6
20260502224003 52 302 0.0 0.0 0.00 0.00 0.00 41 988.6
20260502223503 52 302 0.0 0.0 0.00 0.00 0.00 45 988.6
20260502223007 52 302 0.0 0.0 0.00 0.00 0.00 46 988.6
20260502222503 52 302 0.0 0.0 0.00 0.00 0.00 43 988.6
20260502222003 52 302 0.0 0.0 0.00 0.00 0.00 42 988.6
20260502221516 52 302 0.0 0.0 0.00 0.00 0.00 44 988.6
20260502221006 52 302 0.0 0.0 0.00 0.00 0.00 41 988.6
20260502220507 52 302 0.0 0.0 0.00 0.00 0.00 41 988.5